Regional Weather Roundup
Issued by NWS Northern Indiana

Home | Current Version | Previous Version | Text Only | Print | Product List | Glossary Off
Versions: 1 2 3 4 5 6 7 8 9 10 11 12 13 14 15 16 17 18 19 20 21 22 23 24 25 26 27 28 29 30 31 32 33 34 35 36 37 38 39 40 41 42 43 44 45 46 47 48 49 50

000
ASUS43 KIWX 292300
RWRIWX

KIWX WEATHER ROUNDUP
NATIONAL WEATHER SERVICE NORTHERN INDIANA
700 PM EDT MON JUN 29 2015

NOTE: "FAIR" INDICATES FEW OR NO CLOUDS BELOW 12,000 FEET WITH NO
SIGNIFICANT WEATHER AND/OR OBSTRUCTIONS TO VISIBILITY.

* THESE STATIONS ARE NOT UNDER NWS QUALITY CONTROL. THEY ALSO MAY NOT
  REPORT WEATHER SUCH AS PRECIPITATION OR FOG.

INZ001>027-300000-
NORTHERN INDIANA

CITY           SKY/WX    TMP DP  RH WIND       PRES   REMARKS
GARY*          CLOUDY    72  68  88 CALM      29.80S
SOUTH BEND     MOSUNNY   70  61  73 E10       29.81F
ELKHART*       CLOUDY    66  59  77 E6        29.83S
GOSHEN         CLOUDY    65  59  81 SE7       29.82F
ANGOLA*        CLOUDY    63  52  67 SE7       29.84S
FORT WAYNE     CLOUDY    64  60  87 NE8       29.82F

$$
INZ028>050-300000-
CENTRAL INDIANA

CITY           SKY/WX    TMP DP  RH WIND       PRES   REMARKS
LAFAYETTE      PTSUNNY   73  64  73 CALM      29.79R
KOKOMO*        PTSUNNY   70  63  78 CALM      29.80R
MUNCIE*        PTSUNNY   71  62  73 NE6       29.80S
INDIANAPOLIS   PTSUNNY   74  63  68 W9        29.79R

$$
MIZ043>046-050>051-056>058-064>065-071>073-077>080-300000-
SOUTHWEST LOWER MICHIGAN

CITY           SKY/WX    TMP DP  RH WIND       PRES   REMARKS
BATTLE CREEK   MOSUNNY   70  58  65 SE9       29.83F
BENTON HARBOR  PTSUNNY   70  60  70 SE8       29.80F
COLDWATER*     PTSUNNY   64  57  78 SE7       29.84S
HILLSDALE*     PTSUNNY   64  61  91 S5        29.84F
HOLLAND        PTSUNNY   73  62  68 SW7       29.81S
GRAND RAPIDS   PTSUNNY   74  57  55 S10       29.81F
KALAMAZOO      MOSUNNY   68  56  65 S8G16     29.83S
STURGIS*         N/A     64  59  82 SE8       29.83F
THREE RIVERS*  CLOUDY    65  58  76 S8        29.84S

$$
OHZ001>008-015>018-024>025-300000-
NORTHWEST OHIO

CITY           SKY/WX    TMP DP  RH WIND       PRES   REMARKS
DEFIANCE       CLOUDY    63  60  90 E6        29.83F FOG
FINDLAY        CLOUDY    63  59  87 E10       29.82S
TOLEDO EXPRESS CLOUDY    65  56  72 E12       29.83F
TOLEDO METCALF CLOUDY    67  55  65 SE13      29.84F
LIMA           CLOUDY    63  61  93 E6        29.81F FOG

$$
AND FOR LAKE MICHIGAN COASTAL AND OPEN LAKE BUOY OBSERVATIONS

STATION/POSITION TEMP    WIND        PRES    VSBY  WAVE
                 AIR SEA DIR/SP/G                  HT/PER
                 (F)     (DEG/KT/KT) (MB)    (MI)  (FT/S)
CALUMET HARBOR    68      50/  3/  4   N/A
MICHIGAN CITY     68     330/  8/  9   N/A
BURNS HARBOR      67      10/  6/  8 1009.8S
SAINT JOSEPH      74     220/  2/  5 1010.2F
4 MI NW BRIDGMAN  67 65                N/A           0
MICHIGAN CITY     67 67   10/  4/  6   N/A           0

$$
&&



USA.gov is the U.S. government's official web portal to all federal, state and local government web resources and services.